GW2134 Weather Reports


time (UTC)temp
C
wind
direction
speed
KPH
gust
KPH
rain 1hr
cm
rain 24hr
cm
rain mn
cm
humidity
%
barometer
mb
20260902204601 19 340 4.8 9.7 0.00 1.02 1.02 82 1022.9
20260902203057 19 342 3.2 9.7 0.00 1.02 1.02 83 1022.9
20260902201600 19 28 6.4 12.9 0.00 1.02 1.02 84 1022.9
20260902194559 19 344 6.4 12.9 0.00 1.02 1.02 85 1022.8
20260902193101 19 338 6.4 12.9 0.00 1.02 1.02 86 1022.8
20260902191559 18 323 4.8 8.0 0.00 1.02 1.02 88 1022.7
20260902190056 18 323 3.2 8.0 0.00 0.99 0.99 88 1022.6
20260902184559 18 347 0.0 8.0 0.00 0.99 0.99 89 1022.5
20260902183059 18 343 4.8 9.7 0.20 0.99 0.99 88 1022.6
20260902181602 19 355 1.6 8.0 0.99 0.99 0.99 88 1022.4
20260902180142 19 360 3.2 6.4 0.99 0.99 0.99 87 1022.3
20260902174600 19 331 4.8 14.5 0.99 0.99 0.99 83 1022.6
20260902173054 21 355 16.1 29.0 0.74 0.74 0.74 76 1023.1
20260902171558 25 344 3.2 6.4 0.00 0.00 0.00 68 1022.3
20260902164603 26 355 3.2 6.4 0.00 0.00 0.00 62 1022.2
20260902163105 26 170 3.2 8.0 0.00 0.00 0.00 59 1022.1
20260902161606 26 0 0.0 3.2 0.00 0.00 0.00 58 1022.3
20260902154556 26 336 1.6 8.0 0.00 0.00 0.00 56 1022.5
20260902153058 26 136 4.8 17.7 0.00 0.00 0.00 57 1022.5
20260902151601 27 64 1.6 8.0 0.00 0.00 0.00 57 1022.3
20260902144600 26 0 1.6 12.9 0.00 0.00 0.00 58 1022.5
20260902143106 27 136 3.2 14.5 0.00 0.00 0.00 55 1022.2
20260902141558 28 0 0.0 3.2 0.00 0.00 0.00 53 1022.3
20260902134558 29 142 4.8 22.5 0.00 0.00 0.00 49 1022.1
20260902133059 30 200 3.2 17.7 0.00 0.00 0.00 45 1022.4
20260902131555 30 0 1.6 17.7 0.00 0.00 0.00 46 1022.5
20260902130059 30 123 6.4 19.3 0.00 0.00 0.00 47 1022.6
20260902124602 30 0 0.0 8.0 0.00 0.00 0.00 45 1022.7
20260902123059 30 163 3.2 12.9 0.00 0.00 0.00 43 1022.8
20260902121607 30 125 6.4 22.5 0.00 0.00 0.00 43 1022.9
20260902120052 30 0 4.8 12.9 0.00 0.00 0.00 42 1023.0
20260902114558 29 106 1.6 8.0 0.00 0.00 0.00 44 1023.3
20260902113105 29 125 3.2 12.9 0.00 0.00 0.00 44 1023.3
20260902111557 28 158 3.2 17.7 0.00 0.00 0.00 45 1023.4
20260902110056 29 139 0.0 12.9 0.00 0.00 0.00 42 1023.5
20260902104601 28 117 8.0 19.3 0.00 0.00 0.00 43 1023.5
20260902103103 28 129 3.2 16.1 0.00 0.00 0.00 45 1023.6
20260902101607 28 168 6.4 17.7 0.00 0.00 0.00 50 1023.8
20260902100105 27 190 6.4 14.5 0.00 0.00 0.00 53 1023.9
20260902094601 27 169 3.2 14.5 0.00 0.00 0.00 54 1024.0
20260902093105 27 170 4.8 11.3 0.00 0.00 0.00 54 1024.1
20260902091603 27 113 3.2 8.0 0.00 0.00 0.00 55 1024.2
20260902090100 27 121 3.2 11.3 0.00 0.00 0.00 56 1024.2
20260902084601 26 108 3.2 8.0 0.00 0.00 0.00 56 1024.2
20260902083058 26 0 0.0 9.7 0.00 0.00 0.00 57 1024.0
20260902081602 26 128 1.6 4.8 0.00 0.00 0.00 57 1023.8
20260902080056 25 113 1.6 4.8 0.00 0.00 0.00 58 1023.8
20260902074600 25 0 0.0 4.8 0.00 0.00 0.00 60 1023.6
20260902073102 24 0 1.6 4.8 0.00 0.00 0.00 62 1023.6
20260902071606 23 0 1.6 6.4 0.00 0.00 0.00 63 1023.3
20260902070058 22 0 0.0 3.2 0.00 0.00 0.00 66 1023.3
20260902064606 21 44 0.0 3.2 0.00 0.00 0.00 68 1023.3
20260902063100 21 0 0.0 1.6 0.00 0.00 0.00 70 1023.3
20260902060109 20 0 0.0 1.6 0.00 0.00 0.00 74 1023.2
20260902054600 19 0 0.0 0.0 0.00 0.00 0.00 75 1023.1
20260902053114 18 0 0.0 1.6 0.00 0.00 0.00 76 1023.0
20260902051600 18 43 0.0 3.2 0.00 0.00 0.00 77 1022.9
20260902050107 18 0 0.0 1.6 0.00 0.00 0.00 73 1022.9
20260902044606 18 0 0.0 1.6 0.00 0.00 0.00 75 1023.0
20260902043106 18 0 0.0 1.6 0.00 0.00 0.00 75 1022.9
20260902041604 18 0 0.0 1.6 0.00 0.00 0.00 75 1022.9
20260902040056 18 0 0.0 4.8 0.00 0.00 0.00 75 1022.8
20260902034557 18 0 0.0 3.2 0.00 0.00 0.00 73 1022.9
20260902033100 18 0 0.0 3.2 0.00 0.00 0.00 72 1022.8
20260902031602 18 0 0.0 1.6 0.00 0.00 0.00 72 1023.0
20260902030055 18 0 0.0 0.0 0.00 0.00 0.00 71 1023.0
20260902024553 18 0 0.0 0.0 0.00 0.00 0.00 72 1023.0
20260902023100 18 0 0.0 0.0 0.00 0.00 0.00 72 1023.1
20260902021601 18 0 0.0 3.2 0.00 0.00 0.00 72 1023.0
20260902020106 18 0 0.0 0.0 0.00 0.00 0.00 73 1023.1
20260902014555 18 0 0.0 0.0 0.00 0.00 0.00 74 1023.1
20260902013059 18 0 0.0 0.0 0.00 0.00 0.00 73 1023.2
20260902011601 19 360 0.0 1.6 0.00 0.00 0.00 73 1023.2
20260902010106 19 360 0.0 1.6 0.00 0.00 0.00 71 1023.3
20260902004602 19 0 0.0 1.6 0.00 0.00 0.00 71 1023.2
20260902003054 19 0 0.0 0.0 0.00 0.00 0.00 71 1023.1
20260902001625 19 0 0.0 3.2 0.00 0.00 0.00 71 1023.1
20260902000103 19 0 0.0 0.0 0.00 0.00 0.00 70 1023.1
20260901234555 19 360 0.0 3.2 0.00 0.00 0.00 70 1023.1
20260901233102 19 0 0.0 1.6 0.00 0.00 0.00 72 1023.1
20260901231602 20 0 0.0 1.6 0.00 0.00 0.00 72 1023.1
20260901230101 20 0 0.0 1.6 0.00 0.00 0.00 73 1023.1
20260901224606 20 360 0.0 1.6 0.00 0.00 0.00 71 1023.1
20260901223103 20 0 0.0 1.6 0.00 0.00 0.00 73 1023.1
20260901221600 20 0 0.0 1.6 0.00 0.00 0.00 73 1023.2
20260901220134 20 360 1.6 4.8 0.00 0.00 0.00 73 1023.1
20260901214604 20 360 3.2 4.8 0.00 0.00 0.00 73 1023.1
20260901213122 20 0 0.0 3.2 0.00 0.00 0.00 73 1022.9
20260901211554 20 0 0.0 4.8 0.00 0.00 0.00 73 1022.9
20260901210117 21 360 3.2 4.8 0.00 0.00 0.00 72 1022.8